Regional Weather Roundup
Issued by NWS

Home | Current Version | Previous Version | Graphics & Text | Print | Product List | Glossary On
Versions: 1 2 3 4 5 6 7 8 9 10 11 12 13 14 15 16 17 18 19 20 21 22 23 24 25 26 27 28 29 30 31 32 33 34 35 36 37 38 39 40 41 42 43 44 45 46 47 48 49 50
912
ASUS44 KJAN 221910
RWRMS

MISSISSIPPI HOURLY WEATHER ROUNDUP
NATIONAL WEATHER SERVICE JACKSON MS
100 PM CST SAT NOV 22 2014

NOTE: "FAIR: INDICATES FEW OR NO CLOUDS BELOW 12,000 FEET WITH NO
SIGNIFICANT WEATHER AND/OR OBSTRUCTIONS TO VISIBILITY.

MSZ001>002-007>008-010>013-018>021-025>028-034>036-222000-
NORTHWEST MISSISSIPPI

CITY           SKY/WX    TMP DP  RH WIND       PRES   REMARKS
CLARKSDALE     FAIR      63  46  55 SE9       30.14F
CLEVELAND      FAIR      67  50  53 S14       30.10F
GREENWOOD      PTSUNNY   71  45  39 S14       30.12F
GREENVILLE     SUNNY     69  49  48 S18       30.10F
GRENADA        FAIR      70  43  37 SE10G18   30.14F
OLIVE BRANCH   PTSUNNY   63  43  48 SE10      30.14F
OXFORD         FAIR      61  41  48 SE6       30.17F
TUNICA         MOCLDY    63  45  51 SE12G18   30.14F
$$

MSZ003>006-009-014>017-022>024-029>033-037>039-222000-
NORTHEAST MISSISSIPPI

CITY           SKY/WX    TMP DP  RH WIND       PRES   REMARKS
COLUMBUS AFB   MOSUNNY   68  41  37 S16       30.19F
CORINTH        MOCLDY    64  36  34 S12G17    30.18F
GOLDN TRIANGLE MOSUNNY   66  45  45 S16G23    30.19F
STARKVILLE     FAIR      66  43  42 SE9G18    30.18F
TUPELO         LGT RAIN  66  38  35 S15G21    30.18F
$$

MSZ040-058-222000-
CENTRAL MISSISSIPPI

CITY           SKY/WX    TMP DP  RH WIND       PRES   REMARKS
JACKSON INTL   PTSUNNY   68  48  48 SE9       30.13F
JACKSON HAWKNS PTSUNNY   69  49  48 SE10      30.13F
MERIDIAN KEY   PTSUNNY   69  48  47 S9        30.17F
MERIDIAN NAS   PTSUNNY   70  48  45 E12       30.18F
RAYMOND        FAIR      70  64  83 SE9G17    30.12F
VICKSBURG      MOSUNNY   70  52  52 S12       30.11F
$$

MSZ059>079-222000-
SOUTH MISSISSIPPI

CITY           SKY/WX    TMP DP  RH WIND       PRES   REMARKS
BROOKHAVEN     FAIR      68  54  60 SE7       30.14F
HATTIESBURG    CLOUDY    69  50  50 E8        30.15F
MCCOMB         CLOUDY    67  53  61 SE10      30.11F
NATCHEZ        PTSUNNY   70  55  60 SE12G21   30.10F
PINE BELT      CLOUDY    66  48  52 SE8       30.16F
$$

MSZ080>082-222000-
COASTAL MISSISSIPPI

CITY           SKY/WX    TMP DP  RH WIND       PRES   REMARKS
BAY ST LOUIS   PTSUNNY   64  52  63 E7G16     30.17S
BILOXI         CLOUDY    67  57  70 E13G25    30.13F
PASCAGOULA     CLOUDY    67  56  67 E15       30.15F
GULFPORT       CLOUDY    65  56  72 E14G23    30.13F
$$



USA.gov is the U.S. government's official web portal to all federal, state and local government web resources and services.